SpaceMobile-003

operational
NORAD ID: 61045 Int'l Des: 2024-163 Owner: ASTS Country: US Constellation: bluewalker
LEOCIRCULAR

About SpaceMobile-003

Description loading...

Live Position

Loading 3D Globe...

Upcoming Passes

Altitude History

Altitude vs Time

uPlot chart will show altitude changes over time

Two-Line Element Set

1 61045U 24163A 25312.10638500 .00007133 00000-0 33187-3 0 9997
2 61045 52.9783 246.3903 0010511 165.7268 194.4026 15.20969128 64124
Epoch: Nov 8, 2025 • Age: 50 hours

Current Status

Altitude 503.2 km
Velocity 7.62 km/s
Sub-Earth Point -22.15°S, 40.23°W
Launch Date Sep 12, 2024
Age 1.1 years
Type other

Technical Details

Classification Payload
Mass 1500.00 kg
Dry Mass 1500.00 kg
Total Mass 1500.00 kg
Length 1.00 m
Diameter 1.00 m
Span 9.00 m
Shape Box + plate
Manufacturer ASTS
Bus Type BW3
Phase Status In Orbit
Owner/State ASTS/US

Large Constellations

Loading constellations...